Time,TemperatureF,DewpointF,PressureIn,WindDirection,WindDirectionDegrees,WindSpeedMPH,WindSpeedGustMPH,Humidity,HourlyPrecipIn,Conditions,Clouds,dailyrainin,SoftwareType,DateUTC
2013-03-24 00:02:00,30.0,18.0,30.08,NNW,332,4.0,6.0,61,0.00,,,0.00,,2013-03-24 05:02:00,
2013-03-24 00:12:00,30.0,18.0,30.08,NNW,332,4.0,6.0,61,0.00,,,0.00,,2013-03-24 05:12:00,
2013-03-24 00:22:00,30.0,18.0,30.07,NW,310,4.0,5.0,61,0.00,,,0.00,,2013-03-24 05:22:00,
2013-03-24 00:32:00,30.0,19.0,30.06,NW,311,4.0,6.0,62,0.00,,,0.00,,2013-03-24 05:32:00,
2013-03-24 00:42:00,30.0,19.0,30.06,NW,311,4.0,6.0,62,0.00,,,0.00,,2013-03-24 05:42:00,
2013-03-24 00:52:00,30.0,19.0,30.06,NW,311,4.0,6.0,62,0.00,,,0.00,,2013-03-24 05:52:00,
2013-03-24 01:02:00,29.0,18.0,30.06,WNW,301,4.0,5.0,63,0.00,,,0.00,,2013-03-24 06:02:00,
2013-03-24 01:12:00,29.0,18.0,30.06,WNW,301,4.0,5.0,63,0.00,,,0.00,,2013-03-24 06:12:00,
2013-03-24 01:22:00,29.0,18.0,30.06,WNW,294,4.0,5.0,63,0.00,,,0.00,,2013-03-24 06:22:00,
2013-03-24 01:32:00,29.0,18.0,30.06,WNW,298,4.0,5.0,63,0.00,,,0.00,,2013-03-24 06:32:00,
2013-03-24 01:42:00,29.0,18.0,30.06,WNW,298,4.0,5.0,63,0.00,,,0.00,,2013-03-24 06:42:00,
2013-03-24 01:52:00,29.0,18.0,30.05,NNW,331,4.0,6.0,63,0.00,,,0.00,,2013-03-24 06:52:00,
2013-03-24 02:02:00,29.0,18.0,30.05,NNW,340,4.0,7.0,64,0.00,,,0.00,,2013-03-24 07:02:00,
2013-03-24 02:12:00,29.0,18.0,30.05,NNW,340,4.0,7.0,64,0.00,,,0.00,,2013-03-24 07:12:00,
2013-03-24 02:22:00,28.0,17.0,30.05,NNW,343,4.0,7.0,64,0.00,,,0.00,,2013-03-24 07:22:00,
2013-03-24 02:32:00,28.0,18.0,30.05,North,8,6.0,9.0,67,0.00,,,0.00,,2013-03-24 07:32:00,
2013-03-24 02:42:00,28.0,18.0,30.05,North,8,6.0,9.0,67,0.00,,,0.00,,2013-03-24 07:42:00,
2013-03-24 02:52:00,28.0,19.0,30.05,North,9,5.0,7.0,69,0.00,,,0.00,,2013-03-24 07:52:00,
2013-03-24 03:03:00,28.0,20.0,30.05,NNE,12,5.0,7.0,70,0.00,,,0.00,,2013-03-24 08:03:00,
2013-03-24 03:12:00,28.0,20.0,30.05,NNE,12,5.0,7.0,70,0.00,,,0.00,,2013-03-24 08:12:00,
2013-03-24 03:22:00,28.0,20.0,30.05,NNE,15,4.0,5.0,73,0.00,,,0.00,,2013-03-24 08:22:00,
2013-03-24 03:32:00,28.0,21.0,30.05,NNE,21,4.0,7.0,74,0.00,,,0.00,,2013-03-24 08:32:00,
2013-03-24 03:42:00,28.0,21.0,30.05,NNE,21,4.0,7.0,74,0.00,,,0.00,,2013-03-24 08:42:00,
2013-03-24 03:52:00,28.0,20.0,30.05,NE,36,5.0,9.0,73,0.00,,,0.00,,2013-03-24 08:52:00,
2013-03-24 04:02:00,28.0,20.0,30.06,NE,45,4.0,8.0,73,0.00,,,0.00,,2013-03-24 09:02:00,
2013-03-24 04:12:00,28.0,20.0,30.06,NE,45,4.0,8.0,73,0.00,,,0.00,,2013-03-24 09:12:00,
2013-03-24 04:22:00,28.0,20.0,30.05,NE,47,5.0,8.0,72,0.00,,,0.00,,2013-03-24 09:22:00,
2013-03-24 04:33:00,28.0,20.0,30.05,NE,40,6.0,9.0,71,0.00,,,0.00,,2013-03-24 09:33:00,
2013-03-24 04:42:00,28.0,20.0,30.05,NE,40,6.0,9.0,71,0.00,,,0.00,,2013-03-24 09:42:00,
2013-03-24 04:52:00,28.0,20.0,30.05,NNE,30,5.0,9.0,71,0.00,,,0.00,,2013-03-24 09:52:00,
2013-03-24 05:03:00,28.0,20.0,30.04,NNE,31,5.0,9.0,71,0.00,,,0.00,,2013-03-24 10:03:00,
2013-03-24 05:12:00,28.0,20.0,30.04,NNE,31,5.0,9.0,71,0.00,,,0.00,,2013-03-24 10:12:00,
2013-03-24 05:22:00,28.0,20.0,30.04,NNE,31,5.0,9.0,72,0.00,,,0.00,,2013-03-24 10:22:00,
2013-03-24 05:32:00,28.0,20.0,30.04,NNE,27,5.0,8.0,72,0.00,,,0.00,,2013-03-24 10:32:00,
2013-03-24 05:42:00,28.0,20.0,30.04,NNE,27,5.0,8.0,72,0.00,,,0.00,,2013-03-24 10:42:00,
2013-03-24 05:52:00,27.0,19.0,30.04,NNE,21,5.0,8.0,72,0.00,,,0.00,,2013-03-24 10:52:00,
2013-03-24 06:03:00,27.0,19.0,30.04,NNE,20,6.0,10.0,72,0.00,,,0.00,,2013-03-24 11:03:00,
2013-03-24 06:12:00,27.0,19.0,30.04,NNE,20,6.0,10.0,72,0.00,,,0.00,,2013-03-24 11:12:00,
2013-03-24 06:22:00,27.0,19.0,30.04,NNE,20,6.0,10.0,72,0.00,,,0.00,,2013-03-24 11:22:00,
2013-03-24 06:32:00,27.0,19.0,30.04,NNE,20,6.0,10.0,72,0.00,,,0.00,,2013-03-24 11:32:00,
2013-03-24 06:42:00,27.0,19.0,30.04,NNE,20,6.0,10.0,72,0.00,,,0.00,,2013-03-24 11:42:00,
2013-03-24 06:52:00,27.0,19.0,30.05,North,10,5.0,8.0,72,0.00,,,0.00,,2013-03-24 11:52:00,
2013-03-24 07:03:00,26.0,18.0,30.05,NNE,13,5.0,8.0,72,0.00,,,0.00,,2013-03-24 12:03:00,
2013-03-24 07:12:00,26.0,18.0,30.05,NNE,13,5.0,8.0,72,0.00,,,0.00,,2013-03-24 12:12:00,
2013-03-24 07:22:00,26.0,18.0,30.06,NNE,18,5.0,9.0,72,0.00,,,0.00,,2013-03-24 12:22:00,
2013-03-24 07:32:00,26.0,19.0,30.05,NNE,25,5.0,10.0,73,0.00,,,0.00,,2013-03-24 12:32:00,
2013-03-24 07:42:00,26.0,19.0,30.05,NNE,25,5.0,10.0,73,0.00,,,0.00,,2013-03-24 12:42:00,
2013-03-24 07:52:00,26.0,19.0,30.05,NNE,31,5.0,9.0,73,0.00,,,0.00,,2013-03-24 12:52:00,
2013-03-24 08:02:00,26.0,19.0,30.05,NNE,32,5.0,9.0,73,0.00,,,0.00,,2013-03-24 13:02:00,
2013-03-24 08:12:00,26.0,19.0,30.05,NNE,32,5.0,9.0,73,0.00,,,0.00,,2013-03-24 13:12:00,
2013-03-24 08:22:00,26.0,19.0,30.05,NNE,16,6.0,10.0,74,0.00,,,0.00,,2013-03-24 13:22:00,
2013-03-24 08:32:00,26.0,19.0,30.06,NNE,16,6.0,10.0,74,0.00,,,0.00,,2013-03-24 13:32:00,
2013-03-24 08:42:00,26.0,19.0,30.06,NNE,16,6.0,10.0,74,0.00,,,0.00,,2013-03-24 13:42:00,
2013-03-24 08:52:00,26.0,19.0,30.06,NNE,13,7.0,11.0,74,0.00,,,0.00,,2013-03-24 13:52:00,
2013-03-24 09:02:00,26.0,19.0,30.05,NNE,13,7.0,11.0,74,0.00,,,0.00,,2013-03-24 14:02:00,
2013-03-24 09:12:00,26.0,19.0,30.05,NNE,13,7.0,11.0,74,0.00,,,0.00,,2013-03-24 14:12:00,
2013-03-24 09:22:00,26.0,19.0,30.05,NNE,14,9.0,15.0,73,0.00,,,0.00,,2013-03-24 14:22:00,
2013-03-24 09:32:00,27.0,19.0,30.05,NNE,14,9.0,15.0,72,0.00,,,0.00,,2013-03-24 14:32:00,
2013-03-24 09:42:00,27.0,19.0,30.05,NNE,14,9.0,15.0,72,0.00,,,0.00,,2013-03-24 14:42:00,
2013-03-24 09:52:00,27.0,19.0,30.05,NNE,16,9.0,16.0,72,0.00,,,0.00,,2013-03-24 14:52:00,
2013-03-24 10:02:00,27.0,19.0,30.04,NNE,14,10.0,18.0,72,0.00,,,0.00,,2013-03-24 15:02:00,
2013-03-24 10:12:00,27.0,19.0,30.04,NNE,14,10.0,18.0,72,0.00,,,0.00,,2013-03-24 15:12:00,
2013-03-24 10:22:00,27.0,19.0,30.04,NNE,14,10.0,18.0,72,0.00,,,0.00,,2013-03-24 15:22:00,
2013-03-24 10:33:00,28.0,20.0,30.04,NNE,14,11.0,19.0,71,0.00,,,0.00,,2013-03-24 15:33:00,
2013-03-24 10:43:00,28.0,20.0,30.04,NNE,14,11.0,19.0,71,0.00,,,0.00,,2013-03-24 15:43:00,
2013-03-24 10:53:00,28.0,20.0,30.04,NNE,14,11.0,19.0,71,0.00,,,0.00,,2013-03-24 15:53:00,
2013-03-24 11:03:00,28.0,20.0,30.03,NNE,14,12.0,19.0,71,0.00,,,0.00,,2013-03-24 16:03:00,
2013-03-24 11:12:00,28.0,20.0,30.03,NNE,14,12.0,19.0,71,0.00,,,0.00,,2013-03-24 16:12:00,
2013-03-24 11:23:00,29.0,20.0,30.03,NNE,17,13.0,22.0,70,0.00,,,0.00,,2013-03-24 16:23:00,
2013-03-24 11:33:00,30.0,21.0,30.03,NNE,19,12.0,20.0,69,0.00,,,0.00,,2013-03-24 16:33:00,
2013-03-24 11:42:00,30.0,21.0,30.03,NNE,19,12.0,20.0,69,0.00,,,0.00,,2013-03-24 16:42:00,
2013-03-24 11:52:00,30.0,21.0,30.03,NNE,14,13.0,22.0,69,0.00,,,0.00,,2013-03-24 16:52:00,
2013-03-24 12:02:00,30.0,21.0,30.02,NNE,17,13.0,21.0,68,0.00,,,0.00,,2013-03-24 17:02:00,
2013-03-24 12:12:00,30.0,21.0,30.02,NNE,17,13.0,21.0,68,0.00,,,0.00,,2013-03-24 17:12:00,
2013-03-24 12:22:00,30.0,21.0,30.02,NNE,16,13.0,21.0,68,0.00,,,0.00,,2013-03-24 17:22:00,
2013-03-24 12:32:00,31.0,22.0,30.01,NNE,13,16.0,27.0,68,0.00,,,0.00,,2013-03-24 17:32:00,
2013-03-24 12:42:00,31.0,22.0,30.01,NNE,13,16.0,27.0,68,0.00,,,0.00,,2013-03-24 17:42:00,
2013-03-24 12:52:00,31.0,22.0,30.01,NNE,16,16.0,25.0,68,0.00,,,0.00,,2013-03-24 17:52:00,
2013-03-24 13:03:00,30.0,20.0,30.00,NNE,15,14.0,21.0,67,0.00,,,0.00,,2013-03-24 18:03:00,
2013-03-24 13:12:00,30.0,20.0,30.00,NNE,15,14.0,21.0,67,0.00,,,0.00,,2013-03-24 18:12:00,
2013-03-24 13:22:00,30.0,21.0,30.01,NNE,16,15.0,24.0,68,0.00,,,0.00,,2013-03-24 18:22:00,
2013-03-24 13:32:00,31.0,21.0,30.01,NNE,14,13.0,23.0,67,0.00,,,0.00,,2013-03-24 18:32:00,
2013-03-24 13:43:00,31.0,21.0,30.01,NNE,14,13.0,23.0,67,0.00,,,0.00,,2013-03-24 18:43:00,
2013-03-24 13:52:00,31.0,22.0,30.01,NNE,13,13.0,20.0,68,0.00,,,0.00,,2013-03-24 18:52:00,
2013-03-24 14:02:00,31.0,21.0,30.01,NNE,32,10.0,16.0,67,0.00,,,0.00,,2013-03-24 19:02:00,
2013-03-24 14:12:00,31.0,21.0,30.01,NNE,32,10.0,16.0,67,0.00,,,0.00,,2013-03-24 19:12:00,
2013-03-24 14:22:00,31.0,21.0,30.01,NNE,22,11.0,19.0,67,0.00,,,0.00,,2013-03-24 19:22:00,
2013-03-24 14:32:00,31.0,21.0,30.00,NNE,19,10.0,16.0,65,0.00,,,0.00,,2013-03-24 19:32:00,
2013-03-24 14:42:00,31.0,21.0,30.00,NNE,19,10.0,16.0,65,0.00,,,0.00,,2013-03-24 19:42:00,
2013-03-24 14:52:00,31.0,21.0,30.00,NNE,13,11.0,18.0,67,0.00,,,0.00,,2013-03-24 19:52:00,
2013-03-24 15:02:00,31.0,21.0,30.00,NNE,13,11.0,17.0,67,0.00,,,0.00,,2013-03-24 20:02:00,
2013-03-24 15:12:00,31.0,21.0,30.00,NNE,13,11.0,17.0,67,0.00,,,0.00,,2013-03-24 20:12:00,
2013-03-24 15:22:00,31.0,21.0,30.00,NNE,15,11.0,17.0,67,0.00,,,0.00,,2013-03-24 20:22:00,
2013-03-24 15:32:00,32.0,21.0,29.99,NNE,14,11.0,17.0,64,0.00,,,0.00,,2013-03-24 20:32:00,
2013-03-24 15:42:00,32.0,21.0,29.99,NNE,14,11.0,17.0,64,0.00,,,0.00,,2013-03-24 20:42:00,
2013-03-24 15:52:00,32.0,21.0,29.99,NNE,15,12.0,19.0,64,0.00,,,0.00,,2013-03-24 20:52:00,
2013-03-24 16:02:00,32.0,22.0,29.98,NNE,17,10.0,18.0,65,0.00,,,0.00,,2013-03-24 21:02:00,
2013-03-24 16:12:00,32.0,22.0,29.98,NNE,17,10.0,18.0,65,0.00,,,0.00,,2013-03-24 21:12:00,
2013-03-24 16:22:00,32.0,22.0,29.98,North,8,11.0,16.0,66,0.00,,,0.00,,2013-03-24 21:22:00,
2013-03-24 16:33:00,32.0,23.0,29.98,North,10,11.0,18.0,68,0.00,,,0.00,,2013-03-24 21:33:00,
2013-03-24 16:43:00,32.0,23.0,29.98,North,10,11.0,18.0,68,0.00,,,0.00,,2013-03-24 21:43:00,
2013-03-24 16:52:00,32.0,23.0,29.97,North,6,9.0,15.0,68,0.00,,,0.00,,2013-03-24 21:52:00,
2013-03-24 17:03:00,32.0,22.0,29.97,North,4,9.0,15.0,67,0.00,,,0.00,,2013-03-24 22:03:00,
2013-03-24 17:13:00,32.0,22.0,29.97,North,4,9.0,15.0,67,0.00,,,0.00,,2013-03-24 22:13:00,
2013-03-24 17:22:00,32.0,23.0,29.97,North,4,9.0,16.0,68,0.00,,,0.00,,2013-03-24 22:22:00,
2013-03-24 17:33:00,32.0,23.0,29.98,North,9,10.0,20.0,68,0.00,,,0.00,,2013-03-24 22:33:00,
2013-03-24 17:42:00,32.0,23.0,29.98,North,9,10.0,20.0,68,0.00,,,0.00,,2013-03-24 22:42:00,
2013-03-24 17:52:00,31.0,22.0,29.98,North,11,12.0,17.0,70,0.00,,,0.00,,2013-03-24 22:52:00,
2013-03-24 18:02:00,31.0,23.0,29.98,North,11,11.0,17.0,71,0.00,,,0.00,,2013-03-24 23:02:00,
2013-03-24 18:12:00,31.0,23.0,29.98,North,11,11.0,17.0,71,0.00,,,0.00,,2013-03-24 23:12:00,
2013-03-24 18:22:00,31.0,23.0,29.98,North,10,11.0,17.0,71,0.00,,,0.00,,2013-03-24 23:22:00,
2013-03-24 18:32:00,31.0,22.0,29.98,North,11,12.0,18.0,69,0.00,,,0.00,,2013-03-24 23:32:00,
2013-03-24 18:42:00,31.0,22.0,29.98,North,11,12.0,18.0,69,0.00,,,0.00,,2013-03-24 23:42:00,
2013-03-24 18:52:00,31.0,22.0,29.98,North,11,11.0,17.0,68,0.00,,,0.00,,2013-03-24 23:52:00,
2013-03-24 19:02:00,31.0,22.0,29.98,North,8,11.0,18.0,68,0.00,,,0.00,,2013-03-25 00:02:00,
2013-03-24 19:12:00,31.0,22.0,29.98,North,8,11.0,18.0,68,0.00,,,0.00,,2013-03-25 00:12:00,
2013-03-24 19:22:00,31.0,21.0,29.99,North,5,11.0,20.0,67,0.00,,,0.00,,2013-03-25 00:22:00,
2013-03-24 19:32:00,30.0,20.0,29.99,North,9,10.0,15.0,67,0.00,,,0.00,,2013-03-25 00:32:00,
2013-03-24 19:42:00,30.0,20.0,29.99,North,9,10.0,15.0,67,0.00,,,0.00,,2013-03-25 00:42:00,
2013-03-24 19:53:00,30.0,20.0,29.99,North,6,9.0,16.0,67,0.00,,,0.00,,2013-03-25 00:53:00,
2013-03-24 20:02:00,30.0,20.0,30.00,North,2,8.0,15.0,67,0.00,,,0.00,,2013-03-25 01:02:00,
2013-03-24 20:12:00,30.0,20.0,30.00,North,2,8.0,15.0,67,0.00,,,0.00,,2013-03-25 01:12:00,
2013-03-24 20:22:00,29.0,19.0,30.00,North,359,8.0,13.0,67,0.00,,,0.00,,2013-03-25 01:22:00,
2013-03-24 20:32:00,28.0,19.0,30.01,North,358,6.0,11.0,69,0.00,,,0.00,,2013-03-25 01:32:00,
2013-03-24 20:42:00,28.0,19.0,30.01,North,358,6.0,11.0,69,0.00,,,0.00,,2013-03-25 01:42:00,
2013-03-24 20:52:00,28.0,20.0,30.02,NNW,345,6.0,9.0,70,0.00,,,0.00,,2013-03-25 01:52:00,
2013-03-24 21:02:00,28.0,20.0,30.02,NNW,345,5.0,9.0,71,0.00,,,0.00,,2013-03-25 02:02:00,
2013-03-24 21:12:00,28.0,20.0,30.02,NNW,345,5.0,9.0,71,0.00,,,0.00,,2013-03-25 02:12:00,
2013-03-24 21:22:00,28.0,20.0,30.02,North,350,6.0,10.0,71,0.00,,,0.00,,2013-03-25 02:22:00,
2013-03-24 21:32:00,28.0,20.0,30.03,North,358,7.0,11.0,71,0.00,,,0.00,,2013-03-25 02:32:00,
2013-03-24 21:42:00,28.0,20.0,30.03,North,358,7.0,11.0,71,0.00,,,0.00,,2013-03-25 02:42:00,
2013-03-24 21:52:00,28.0,20.0,30.03,North,358,7.0,11.0,71,0.00,,,0.00,,2013-03-25 02:52:00,
2013-03-24 22:02:00,28.0,20.0,30.03,North,6,7.0,10.0,72,0.00,,,0.00,,2013-03-25 03:02:00,
2013-03-24 22:13:00,28.0,20.0,30.03,North,6,7.0,10.0,72,0.00,,,0.00,,2013-03-25 03:13:00,
2013-03-24 22:22:00,28.0,20.0,30.03,North,6,7.0,11.0,73,0.00,,,0.00,,2013-03-25 03:22:00,
2013-03-24 22:33:00,28.0,21.0,30.03,North,5,7.0,11.0,74,0.00,,,0.00,,2013-03-25 03:33:00,
2013-03-24 22:42:00,28.0,21.0,30.03,North,5,7.0,11.0,74,0.00,,,0.00,,2013-03-25 03:42:00,
2013-03-24 22:53:00,28.0,21.0,30.03,North,3,7.0,11.0,74,0.00,,,0.00,,2013-03-25 03:53:00,
2013-03-24 23:02:00,28.0,21.0,30.03,North,2,7.0,13.0,74,0.00,,,0.00,,2013-03-25 04:02:00,
2013-03-24 23:12:00,28.0,21.0,30.03,North,2,7.0,13.0,74,0.00,,,0.00,,2013-03-25 04:12:00,
2013-03-24 23:22:00,28.0,20.0,30.03,North,8,9.0,14.0,73,0.00,,,0.00,,2013-03-25 04:22:00,
2013-03-24 23:33:00,28.0,20.0,30.03,North,10,11.0,19.0,71,0.00,,,0.00,,2013-03-25 04:33:00,
2013-03-24 23:43:00,28.0,20.0,30.03,North,10,11.0,19.0,71,0.00,,,0.00,,2013-03-25 04:43:00,
2013-03-24 23:52:00,28.0,20.0,30.03,North,8,10.0,17.0,70,0.00,,,0.00,,2013-03-25 04:52:00,